www.pogodaiklimat.ru

Погода и климат >> Архив погоды >> Россия >> Якутия >> Саскылах


АРХИВ ПОГОДЫ в Саскылахе

Время (UTC), дата Ветер
(напр.,м/с)
 
Видим.   Явления Облачность Т
(С)
Тd
(С)
f
(%)
Тe
(С)
Тes
(С)
Комфортность P
(гПа)
Po
(гПа)
Тmin
(С)
Tmax
(С)
R
(мм)
R24
(мм)
S
(см)
18 18.05 В 2 н/о н/о -10.8 -13.6 80 -15 -15 1029.6 1027.4
21 18.05 ЮВ 2 н/о н/о -10.9 -13.8 79 -15 -15 1028.7 1026.6
00 19.05 ЮВ 2 н/о н/о -10.2 -13.7 75 -15 -15 1027.6 1025.5 -11.1
03 19.05 ЮВ 3 н/о н/о -10.2 -13.7 75 -16 -16 1026.2 1024.1
06 19.05 В 2 н/о н/о -9.1 -13.1 73 -13 -13 1024.5 1022.4
09 19.05 В 2 н/о н/о -9.6 -13.2 75 -14 -14 1023.7 1021.6
12 19.05 В 2 н/о н/о -11.0 -13.6 81 -16 -16 1022.5 1020.4 -8.0
15 19.05 В 1 н/о н/о -12.3 -14.1 86 -15 -15 1021.4 1019.3
18 19.05 В 1 н/о н/о -12.3 -14.2 86 -15 -15 1020.4 1018.3
21 19.05 СВ 2 н/о н/о -11.3 -14.2 79 -16 -16 1019.4 1017.3
00 20.05 СЗ 1 50 км ясно -10.9 -14.2 77 -13 -8 1019.2 1016.8 -12.4 45
03 20.05 СВ 1 50 км ясно -9.4 -14.0 69 -12 -2 1018.5 1016.1
06 20.05 СЗ 2 50 км ясно -8.8 -14.3 64 -13 -5 1017.6 1015.2
09 20.05 СЗ 2 50 км ясно -8.7 -13.6 68 -13 -9 1017.1 1014.7
12 20.05 С 1 н/о н/о -9.2 -13.5 71 -11 -11 1016.4 1014.3 -8.3
15 20.05 СЗ 1 н/о н/о -14.6 -17.4 79 -17 -17 1015.7 1013.5
18 20.05 Ю 1 н/о н/о -18.3 -20.1 86 -21 -21 1014.7 1012.5
21 20.05 Ю 2 н/о н/о -16.8 -19.8 77 -22 -22 1013.6 1011.4
00 21.05 ЮВ 2 50 км ясно -12.2 -16.0 73 -17 -12 1012.7 1010.3 -18.4 45
03 21.05 В 2 50 км ясно -7.6 -13.1 65 -12 -3 1011.4 1009.0
06 21.05 В 2 50 км ясно -3.6 -10.2 60 -7 +1 1009.6 1007.2
09 21.05 В 1 50 км ясно -3.1 -8.6 66 -5 0 1008.9 1006.5
12 21.05 ЮВ 1 н/о н/о -3.6 -9.3 65 -6 -6 1007.7 1005.6 -2.4
15 21.05 В 1 н/о н/о -4.3 -8.8 71 -6 -6 1006.3 1004.3
18 21.05 СВ 2 н/о н/о -4.5 -7.8 78 -9 -9 1004.9 1002.9
21 21.05 С 1 н/о н/о -2.5 -5.2 82 -5 -5 1003.5 1001.5
00 22.05 СВ 2 50 км 10/10 800 м
[Sc]
-0.9 -4.1 79 -5 -5 1002.5 1000.2 -4.6 43
03 22.05 СВ 6 50 км 6/0
[Ac cast Cc]
+2.0 -1.1 80 -4 -2 1000.6 998.3
06 22.05 СВ 3 50 км 6/3 1000 м
[Sc Ac cast]
+2.4 -0.6 81 -2 +2 999.5 997.2
09 22.05 С 4 50 км ясно +1.9 -0.6 83 -3 0 999.3 997.0
12 22.05 С 3 н/о н/о -0.1 -1.6 90 -5 -5 999.2 997.2 +2.6
15 22.05 С 3 н/о н/о -2.2 -3.4 91 -7 -7 998.8 996.8
18 22.05 С 4 н/о н/о -5.2 -6.1 93 -12 -12 998.2 996.1
21 22.05 С 3 н/о н/о -4.2 -6.1 87 -10 -10 997.8 995.7
00 23.05 СЗ 4 50 км 3/0
[Ci fib]
-2.2 -6.1 75 -8 -5 997.5 995.2 -5.3 39
03 23.05 СЗ 1 50 км 4/0
[Ci fib]
+5.4 -2.4 57 +5 +14 опасность
простуды
997.4 995.1
06 23.05 В 2 50 км 3/0
[Ci fib]
+3.4 -1.3 71 +1 +9 опасность
простуды
997.8 995.5
09 23.05 СВ 2 50 км 3/0
[Ci fib]
+3.3 -0.8 74 +1 +5 998.6 996.3
12 23.05 Ю 1 н/о н/о +2.3 -1.2 78 +1 +1 999.5 997.5 +5.7
15 23.05 В 2
{11}
н/о н/о -0.3 -2.3 86 -4 -4 1000.4 998.4
18 23.05 В 2 н/о н/о -2.6 -4.3 88 -7 -7 1000.7 998.7
21 23.05 В 2 н/о н/о -3.4 -5.8 83 -7 -7 1001.5 999.5
00 24.05 СВ 2 50 км ясно -0.8 -5.0 73 -4 +1 1002.3 1000.0 -3.5 34
03 24.05 СВ 2 50 км 4/0
[Ci fib]
+2.1 -1.6 76 -1 +7 1003.3 1001.0
06 24.05 СВ 6 50 км 4/0
[Ci fib]
+1.9 -1.2 80 -4 -1 1004.2 1001.9
09 24.05 СВ 5 50 км 6/4 600 м
[Sc Ci fib]
+1.0 -2.0 80 -5 -3 1005.6 1003.3
12 24.05 В 6-10
{12}
н/о н/о -1.2 -3.3 86 -8 -8 1007.1 1005.1 +3.1
15 24.05 В 3
{12}
н/о н/о -3.8 -4.6 94 -9 -9 1009.1 1007.1
18 24.05 В 4 н/о н/о -4.8 -5.6 94 -11 -11 1010.0 1007.9
21 24.05 СВ 3 н/о н/о -3.8 -5.1 91 -9 -9 1010.5 1008.4
00 25.05 СВ 2 н/о н/о -2.7 -4.7 86 -7 -7 1011.0 1009.0 -4.9
03 25.05 С 3 н/о н/о -1.7 -4.4 82 -7 -7 1011.5 1009.5
06 25.05 С 3 н/о н/о -0.7 -4.0 78 -5 -5 1012.0 1010.0
09 25.05 СЗ 3 н/о н/о -1.0 -4.0 80 -6 -6 1013.0 1011.0
12 25.05 СЗ 4 н/о н/о -1.9 -4.4 83 -8 -8 1013.8 1011.7 -0.5
15 25.05 СЗ 3 н/о н/о -2.3 -4.4 85 -7 -7 1014.0 1012.0

 

Местоположение метеостанции Саскылах (Якутия, Россия): широта 71.97 долгота 114.00 высота над уровнем моря 17 м.

В архиве по умолчанию представлена погода в Саскылахе за последнюю неделю. Архивные данные за месяц целиком и за предыдущие месяцы, начиная с января 2011 года, Вы можете получить, выбрав интересующий диапазон дат из раскрывающегося списка и нажав кнопку "Ввод!".


*Определитесь, кто Вы:
робот инопланетянин человек

Внимание! Время в таблицах - всемирное. Для получения местного времени необходимо прибавить поправку, которая равна 9 ч.

Смотрите также архив погоды в соседних городах и на ближайших метеорологических станциях:

Погода в Анабаре (Якутия, Россия) (140 км)
Погода в Джалинде (Якутия, Россия) (205 км)
Погода на Усть-Оленеке (Якутия, Россия) (225 км)
Погода на Острове Преображения (Якутия, Россия) (302 км)
Погода в Тюмяти (Якутия, Россия) (327 км)
Погода в Оленеке (Якутия, Россия) (391 км)
Погода в Хатанге (Красноярский край, Россия) (396 км)
Погода в Сухане (Якутия, Россия) (406 км)
Погода на Столб Острове (Якутия, Россия) (421 км)
Погода в Кюсюре (Якутия, Россия) (497 км)

Пояснения к столбцам:

Ветер - указаны скорость ветра в м/с - средняя за 10 мин, порывы в срок и между сроками (в фигурных скобках) и направление, откуда дует ветер: С - северный, СВ - северо-восточный, В - восточный, ЮВ - юго-восточный, Ю - южный, ЮЗ - юго-западный, З - западный, СЗ - северо-западный.
Видимость - горизонтальная дальность видимости в метрах или километрах. При видимости от 1 до 10 км при отсутствии осадков обычно наблюдается дымка, при ухудшении видимости до 1 км и менее - туман. В сухую погоду видимость может ухудшаться дымом, пылью или мглою.
Явления - указаны атмосферные явления, наблюдавшиеся в срок или в последний час перед сроком; фигурными скобками обозначены явления, наблюдавшиеся между сроками (за 1-3 часа до срока); квадратными скобками обозначены град или гололедные отложения с указанием их диаметра в мм.
Облачность - указаны через наклонную черту общая и нижняя облачность в баллах и высота нижней границы облаков в метрах; квадратными скобками обозначены формы облаков: Ci - перистые, Cs - перисто-слоистые, Cc - перисто-кучевые, Ac - высококучевые, As - высокослоистые, Sc - слоисто-кучевые, Ns - слоисто-дождевые, Cu - кучевые, Cb - кучево-дождевые. Подробнее классификацию облаков см. в Атласе облаков (PDF).
T - Температура воздуха - температура, измеренная на высоте 2 м над землей.
Td - Температура точки росы - температура, при понижении до которой содержащийся в воздухе водяной пар достигнет насыщения.
f - Относительная влажность воздуха - влажноcть воздуха, измеренная на высоте 2 м над землей.
Te - Эффективная температура - температура, которую ощущает одетый по сезону человек в тени. Характеристика душности погоды. При расчете учитывается влияние влажности воздуха и скорости ветра на теплоощущения человека.
Tes - Эффективная температура на солнце - температура, которую ощущает человек, с поправкой на солнечный нагрев. Характеристика знойности погоды. Зависит от высоты солнца над горизонтом, облачности и скорости ветра. Ночью, в пасмурную погоду, а также при ветре 12 м/с и более поправка равна нулю.
P - Атмосферное давление - приведенное к уровню моря атмосферное давление.
Po - Атмосферное давление - измеренное на уровне метеостанции атмосферное давление.
Tmin - Минимальная температура - минимум температуры воздуха на высоте 2 м над землей.
Tmax - Максимальная температура - максимум температуры воздуха на высоте 2 м над землей.
R - Количество осадков - Количество выпавших осадков за период времени, мм. При наведении курсора мыши на число - период времени, за который выпало указанное количество осадков.
R24 - Количество осадков - Количество выпавших осадков за 24 часа, мм.
S - Снежный покров - Высота снежного покрова, см. При наведении курсора мыши на число - состояние снежного покрова и степень покрытия местности в баллах.